Cold Bay, AK

8:04 PM AKDT on April 29, 2017 (GMT -0800)
Cold Bay

Weather History for PACD - November, 2013

Change the Weather History Date:

Saturday, November 2, 2013

  Actual Average Record
Temperature  
Mean Temperature 46 °F 37 °F  
Max Temperature 52 °F 41 °F 53 °F (2003)
Min Temperature 40 °F 32 °F 20 °F (1975)
Degree Days  
Heating Degree Days 19 28  
Month to date heating degree days 43 56  
Since 1 July heating degree days 1753 2163  
Cooling Degree Days 0 0  
Month to date cooling degree days 0 0  
Year to date cooling degree days 0 0  
Moisture  
Dew Point 42 °F    
Average Humidity 0    
Maximum Humidity 0    
Minimum Humidity 0    
Precipitation  
Precipitation 0.09 in 0.15 in 1.09 in (1994)
Month to date precipitation 0.50 0.31  
Year to date precipitation 38.12 32.54  
Snow  
Snow 0.00 in 0.20 in 1.30 in (1982)
Month to date snowfall 0.0 0.4  
Since 1 July snowfall 0.0 2.8  
Since 1 September snowfall 0.0 2.8  
Snow Depth 0.00 in    
Sea Level Pressure  
Sea Level Pressure 29.41 in    
Wind  
Wind Speed 15 mph (SSW)    
Max Wind Speed 33 mph    
Max Gust Speed 44 mph    
Visibility 10 miles    
Events Rain    
T = Trace of Precipitation, MM = Missing Value Source: NWS Daily Summary

Daily Weather History Graph

Daily Weather History Graph

Search for Another Location

Airport or City:

Trip Planner

Search our weather history database for the weather conditions in past years. The results will help you decide how hot, cold, wet, or windy it might be!

Date:

Astronomy

Nov. 02, 2013 Rise Set
Actual Time 9:58 AM AKDT 7:09 PM AKDT
Civil Twilight 9:19 AM AKDT 7:48 PM AKDT
Nautical Twilight 8:36 AM AKDT 8:31 PM AKDT
Astronomical Twilight 7:53 AM AKDT 9:14 PM AKDT
Moon 9:04 AM AKDT (11/2) 6:50 PM AKDT (11/2)
Length of Visible Light 10h 29m
Length of Day
9h 11m
Waning Crescent, 1% of the Moon is Illuminated
Nov 2
Waning Crescent
Nov 3
New
Nov 9
First Quarter
Nov 17
Full
Nov 25
Last Quarter

Hourly Weather History & Observations

Time (AKDT) Temp. Windchill Dew Point Humidity Pressure Visibility Wind Dir Wind Speed Gust Speed Precip Events Conditions
12:53 AM 48.9 °F - 46.0 °F 90% 29.38 in 6.0 mi SSE 27.6 mph 35.7 mph 0.05 in Rain Light Rain
1:53 AM 48.0 °F - 44.1 °F 86% 29.35 in 9.0 mi SSE 25.3 mph 36.8 mph 0.02 in Rain Light Rain
2:53 AM 48.0 °F - 43.0 °F 83% 29.34 in 10.0 mi SSE 21.9 mph 32.2 mph 0.00 in Rain Light Rain
3:53 AM 48.0 °F - 42.1 °F 80% 29.33 in 7.0 mi South 19.6 mph 29.9 mph 0.02 in Rain Light Rain
4:53 AM 48.0 °F - 42.1 °F 80% 29.30 in 9.0 mi SSE 17.3 mph 28.8 mph 0.02 in Rain Light Rain
5:53 AM 48.0 °F - 42.1 °F 80% 29.28 in 10.0 mi SSE 19.6 mph - 0.00 in Rain Light Rain
6:53 AM 46.9 °F - 42.1 °F 83% 29.25 in 10.0 mi South 23.0 mph 27.6 mph 0.01 in Rain Light Rain
7:53 AM 48.0 °F - 41.0 °F 77% 29.25 in 10.0 mi South 21.9 mph 31.1 mph 0.01 in Rain Light Rain
8:53 AM 48.9 °F - 41.0 °F 74% 29.25 in 10.0 mi SSW 17.3 mph 29.9 mph 0.01 in   Overcast
9:53 AM 48.9 °F - 41.0 °F 74% 29.27 in 10.0 mi SSW 19.6 mph 35.7 mph N/A   Overcast
10:53 AM 48.9 °F - 41.0 °F 74% 29.31 in 10.0 mi South 13.8 mph - N/A   Mostly Cloudy
11:53 AM 52.0 °F - 42.1 °F 69% 29.35 in 10.0 mi SW 15.0 mph 24.2 mph N/A   Mostly Cloudy
12:13 PM 50.0 °F - 42.8 °F 76% 29.36 in 10.0 mi WSW 13.8 mph - N/A   Overcast
12:53 PM 50.0 °F - 43.0 °F 77% 29.39 in 10.0 mi SW 9.2 mph - 0.00 in Rain Light Rain
1:03 PM 50.0 °F - 42.8 °F 76% 29.39 in 10.0 mi WSW 11.5 mph - 0.00 in Rain Light Rain
1:53 PM 50.0 °F - 44.1 °F 80% 29.41 in 10.0 mi WSW 16.1 mph 26.5 mph 0.00 in   Overcast
2:04 PM 50.0 °F - 42.8 °F 76% 29.41 in 10.0 mi WSW 25.3 mph 34.5 mph N/A   Overcast
2:53 PM 50.0 °F - 43.0 °F 77% 29.43 in 10.0 mi WSW 15.0 mph 25.3 mph N/A   Mostly Cloudy
3:53 PM 48.9 °F - 42.1 °F 77% 29.45 in 10.0 mi WSW 19.6 mph 29.9 mph 0.01 in   Overcast
4:49 PM 48.2 °F - 42.8 °F 82% 29.47 in 6.0 mi WSW 21.9 mph - 0.00 in Rain Light Rain
4:53 PM 48.9 °F - 43.0 °F 80% 29.48 in 8.0 mi SW 20.7 mph 28.8 mph 0.00 in Rain Light Rain
5:04 PM 48.2 °F - 42.8 °F 82% 29.48 in 10.0 mi WSW 18.4 mph - 0.00 in   Overcast
5:53 PM 48.9 °F - 42.1 °F 77% 29.49 in 10.0 mi WSW 19.6 mph 25.3 mph 0.00 in   Mostly Cloudy
6:25 PM 48.2 °F - 42.8 °F 82% 29.49 in 10.0 mi WSW 18.4 mph - N/A   Mostly Cloudy
6:36 PM 48.2 °F - 42.8 °F 82% 29.50 in 10.0 mi SW 12.7 mph - N/A   Overcast
6:53 PM 48.0 °F - 43.0 °F 83% 29.51 in 10.0 mi WSW 6.9 mph 17.3 mph N/A   Overcast
7:46 PM 46.4 °F 40.4 °F 42.8 °F 87% 29.51 in 10.0 mi West 13.8 mph - N/A   Scattered Clouds
7:53 PM 46.9 °F - 42.1 °F 83% 29.51 in 10.0 mi West 17.3 mph - N/A   Scattered Clouds
8:53 PM 42.1 °F 39.2 °F 39.9 °F 92% 29.52 in 10.0 mi ESE 4.6 mph - N/A   Overcast
9:53 PM 43.0 °F 41.3 °F 39.9 °F 89% 29.52 in 10.0 mi Variable 3.5 mph - N/A   Scattered Clouds
10:05 PM 44.6 °F 41.4 °F 39.2 °F 81% 29.52 in 10.0 mi NW 5.8 mph - N/A   Mostly Cloudy
10:53 PM 44.1 °F 40.8 °F 39.9 °F 85% 29.51 in 10.0 mi NNE 5.8 mph - N/A   Overcast
11:32 PM 41.0 °F 37.1 °F 37.4 °F 87% 29.51 in 9.0 mi South 5.8 mph - N/A   Mostly Cloudy
11:49 PM 44.6 °F 40.2 °F 39.2 °F 81% 29.50 in 10.0 mi SE 8.1 mph - N/A   Overcast
11:53 PM 44.1 °F 40.1 °F 39.9 °F 85% 29.50 in 10.0 mi SE 6.9 mph - N/A   Overcast